Ralph Wenz Field Pinedale US
ICAO: KPNA
IATA: PNA
Category: Medium
Scheduled Services: No

Elevation: 7102 ft
TransAlt. 18000 ft.

Airport Communications:
AWOS 3:118.325
SALT LAKE CITY CNTR:128.35
CTAF/UNICOM:122.8

KPNA Zoom In..

If you have problems with the map follow the link
https://www.worldairports.se/pages/airport.php?
ICAO=KPNA

Runways:

(A) RW 11 length 8900 ft width 100 ft
---- / hdg 110

(B) RW 29 length 8900 ft width 100 ft
---- / hdg 290

Location; KPNA
Day. 19 / Time. 20.55 Zulu
* Altimeter: 30.27
* Temperature: -13° c. -8.6°f.
* Wind from: 000° Speed 00 kn.
Dewpoint: -20° c.
Visibility: 10 Statute Miles.
Clouds: Clear (automated report).

KPNA 192055Z AUTO 00000KT 10SM CLR M13/M20 A3027 RMK AO2


Wind - Calm.

 
 
jpsmedia worldairports.se 2020   terms of use